Home > Weather > Concepción > Past weeks

Flag for Chile Past Weather in Concepción, Chile — Yesterday and Last 2 Weeks

Now
50 °F

Overcast.


Feels Like: 50 °F
Forecast: 49 / 54 °F
Wind: No wind

Location: Concepcion Airport

Current Time: Jun 28, 2016 at 8:11:22 PM

Latest Report: Jun 28, 2016 at 7:00 PM


Visibility: N/A

Pressure: 29.98 "Hg

Humidity: 88%

Dew Point: 46 °F

Location of ConcepciónLocation

Past Weather in Concepción — Graph

°F

Concepción Temperature Yesterday

Maximum temperature yesterday: 61 °F (at 2:00 PM)
Minimum temperature yesterday: 39 °F (at 4:00 AM)
Average temperature yesterday: 48 °F

High & Low Weather Summary for the Past Weeks

 TemperatureHumidityPressure
High63 °F (Jun 16, 4:00 PM)100% (Jun 13, 9:00 PM)30.36 "Hg (Jun 13, 9:00 PM)
Low36 °F (Jun 25, 7:00 AM)47% (Jun 25, 1:00 PM)29.95 "Hg (Jun 28, 4:00 PM)
Average48 °F86%30.15 "Hg
* Reported Jun 13 7:00 PM — Jun 28 7:00 PM, Concepción, Weather by CustomWeather, © 2016

Note: Actual official high and low records may vary slightly from our data, if they occured in-between our weather recording intervals... More about our weather records

Advertising

Concepción Weather History for the Previous 24 Hours

Scroll right to see more
 ConditionsComfort  
Time TempWeatherWind HumidityBarometerVisibility
7:00 PM
Tue, Jun 28
50 °FOvercast.No wind88%29.98 "HgN/A
6:00 PM50 °FOvercast.7 mph88%30.01 "HgN/A
5:00 PM50 °FLow clouds.3 mph88%29.98 "HgN/A
4:00 PM52 °FScattered clouds.6 mph82%29.95 "HgN/A
3:00 PM50 °FPartly sunny.1 mph88%29.98 "HgN/A
2:00 PM50 °FLow clouds.7 mph94%30.01 "HgN/A
1:00 PM46 °FFog.3 mph100%29.98 "Hg1 mi
12:00 PM46 °FCool.2 mph100%30.01 "Hg1 mi
11:00 AM45 °FQuite cool.3 mph100%30.01 "Hg0 mi
10:00 AM43 °FQuite cool.3 mph100%30.01 "Hg0 mi
9:02 AM41 °FQuite cool.5 mph100%30.01 "Hg0 mi
9:00 AM41 °FQuite cool.6 mph93%30.01 "Hg1 mi
8:00 AM37 °FClear.3 mph100%29.98 "Hg5 mi
7:00 AM41 °FQuite cool.3 mph100%29.98 "Hg1 mi
6:00 AM43 °FQuite cool.3 mph100%29.98 "Hg0 mi
5:00 AM43 °FFog.2 mph100%30.01 "Hg0 mi
4:00 AM45 °FFog.2 mph93%30.01 "Hg1 mi
3:00 AM41 °FClear.5 mph93%30.01 "Hg10 mi
2:00 AM43 °FClear.5 mph93%30.01 "Hg10 mi
1:00 AM45 °FClear.5 mph93%30.01 "Hg10 mi
12:00 AM46 °FClear.3 mph93%30.04 "Hg10 mi
11:00 PM
Mon, Jun 27
46 °FClear.6 mph93%30.04 "Hg5 mi
10:00 PM46 °FClear.3 mph100%30.04 "Hg4 mi
9:00 PM46 °FFog.No wind100%30.07 "Hg1 mi
8:00 PM50 °FCool.3 mph94%30.07 "Hg1 mi
Weather by CustomWeather, © 2016

See weather overviewHow to use our weather pages